Location: Blankensee
(53.5126°N, 14.3055°E)
Time: 17:09:09
(UTC+00:00)

SL-16 R/B - Pass Details

Date: 08 August 2020
Orbit: 985 x 1007 km, 99.5° (Epoch: 19 September)

Event Time Altitude Azimuth Distance (km) Brightness Sun altitude
Exits shadow 00:59:59 22° 187° (S) 2,029 3.6 -16.4°
Maximum altitude 01:04:00 57° 258° (WSW) 1,178 2.7 -16.1°
Drops below altitude 10° 01:10:11 10° 337° (NNW) 2,791 5.4 -15.7°
Sets 01:12:44 0° 342° (NNW) 3,742 6.2 -15.5°
